Orlando, FL

5:45 PM EDT on October 20, 2019 (GMT -0400)
Executive

Weather History for KORL - September, 2019

Change the Weather History Date:

Saturday, September 21, 2019

  Actual Average Record
Temperature  
Mean Temperature 78 °F -  
Max Temperature 87 °F 86 °F 91 °F (1997)
Min Temperature 72 °F 72 °F 70 °F (2006)
Cooling Degree Days 13    
Growing Degree Days 28 (Base 50)    
Moisture  
Dew Point 65 °F    
Average Humidity 65    
Maximum Humidity 81    
Minimum Humidity 44    
Precipitation  
Precipitation 0.00 in - - ()
Sea Level Pressure  
Sea Level Pressure 30.16 in    
Wind  
Wind Speed 9 mph (ENE)    
Max Wind Speed 20 mph    
Max Gust Speed 28 mph    
Visibility 10 miles    
Events      
Averages and records for this station are not official NWS values.
T = Trace of Precipitation, MM = Missing Value Source: NWS Daily Summary

Daily Weather History Graph

Daily Weather History Graph

Search for Another Location

Airport or City:

Astronomy

Sep. 21, 2019 Rise Set
Actual Time 7:13 AM EDT 7:23 PM EDT
Civil Twilight 6:49 AM EDT 7:46 PM EDT
Nautical Twilight 6:22 AM EDT 8:14 PM EDT
Astronomical Twilight 5:54 AM EDT 8:41 PM EDT
Moon No Moon Rise 1:47 PM EDT (9/21)
Length of Visible Light 12h 57m
Length of Day
12h 10m
Waning Gibbous, 55% of the Moon is Illuminated
Sep 21
Waning Gibbous
Sep 21
Last Quarter
Sep 28
New
Oct 5
First Quarter
Oct 13
Full

Hourly Weather History & Observations

Time (EDT) Temp. Heat Index Dew Point Humidity Pressure Visibility Wind Dir Wind Speed Gust Speed Precip Events Conditions
1:53 AM 73.0 °F - 64.9 °F 76% 30.15 in 10.0 mi ENE 5.8 mph - N/A   Clear
2:53 AM 72.0 °F - 64.0 °F 76% 30.15 in 10.0 mi ENE 5.8 mph - N/A   Clear
3:53 AM 73.0 °F - 64.0 °F 73% 30.14 in 10.0 mi ENE 4.6 mph - N/A   Clear
4:53 AM 73.0 °F - 64.9 °F 76% 30.14 in 10.0 mi NE 6.9 mph - N/A   Mostly Cloudy
5:53 AM 72.0 °F - 64.9 °F 78% 30.14 in 10.0 mi NE 4.6 mph - N/A   Clear
6:53 AM 72.0 °F - 64.0 °F 76% 30.16 in 10.0 mi ENE 6.9 mph - N/A   Partly Cloudy
7:53 AM 72.0 °F - 66.0 °F 81% 30.17 in 10.0 mi ENE 4.6 mph - N/A   Partly Cloudy
8:53 AM 78.1 °F - 68.0 °F 71% 30.18 in 10.0 mi NE 9.2 mph - N/A   Clear
9:53 AM 82.0 °F 84.9 °F 68.0 °F 62% 30.19 in 10.0 mi ENE 15.0 mph - N/A   Scattered Clouds
10:53 AM 84.9 °F 87.6 °F 66.9 °F 55% 30.19 in 10.0 mi ENE 19.6 mph 25.3 mph N/A   Mostly Cloudy
11:53 AM 84.0 °F 84.9 °F 63.0 °F 49% 30.19 in 10.0 mi ENE 17.3 mph 27.6 mph N/A   Mostly Cloudy
12:53 PM 84.9 °F 85.4 °F 62.1 °F 46% 30.18 in 10.0 mi East 16.1 mph - N/A   Mostly Cloudy
1:53 PM 84.9 °F 85.0 °F 61.0 °F 44% 30.16 in 10.0 mi East 16.1 mph - N/A   Mostly Cloudy
2:53 PM 84.0 °F 84.9 °F 63.0 °F 49% 30.15 in 10.0 mi ENE 13.8 mph - N/A   Overcast
3:53 PM 82.9 °F 84.4 °F 64.0 °F 53% 30.14 in 10.0 mi East 13.8 mph - N/A   Overcast
4:53 PM 82.9 °F 84.4 °F 64.0 °F 53% 30.13 in 10.0 mi ENE 13.8 mph 23.0 mph N/A   Overcast
5:53 PM 82.0 °F 83.8 °F 64.9 °F 56% 30.14 in 10.0 mi ENE 15.0 mph 25.3 mph N/A   Overcast
6:53 PM 80.1 °F 82.1 °F 66.0 °F 62% 30.14 in 10.0 mi ENE 12.7 mph - N/A   Scattered Clouds
7:53 PM 79.0 °F - 66.9 °F 66% 30.14 in 10.0 mi ENE 10.4 mph - 0.00 in   Mostly Cloudy
8:53 PM 78.1 °F - 66.0 °F 66% 30.15 in 10.0 mi NE 8.1 mph - N/A   Scattered Clouds
9:53 PM 75.9 °F - 66.0 °F 71% 30.15 in 10.0 mi NE 10.4 mph - N/A   Clear
10:53 PM 75.9 °F - 66.0 °F 71% 30.16 in 10.0 mi NE 5.8 mph - N/A   Clear
11:53 PM 73.9 °F - 66.0 °F 76% 30.15 in 10.0 mi ENE 6.9 mph - N/A   Clear